Regional Weather Roundup
Issued by NWS

Home | Current Version | Previous Version | Graphics & Text | Print | Product List | Glossary On
Versions: 1 2 3 4 5 6 7 8 9 10 11 12 13 14 15 16 17 18 19 20 21 22 23 24 25 26 27 28 29 30 31 32 33 34 35 36 37 38 39 40 41 42 43 44 45 46 47 48 49 50
000
ASUS43 KMPX 260701
RWRMN
WEATHER ROUNDUP FOR MINNESOTA
NATIONAL WEATHER SERVICE TWIN CITIES/CHANHASSEN MN
200 AM CDT THU MAY 26 2016


NOTE: "FAIR" INDICATES FEW OR NO CLOUDS BELOW 12,000 FEET WITH NO
SIGNIFICANT WEATHER AND/OR OBSTRUCTIONS TO VISIBILITY. N/A MEANS
CURRENT SKY AND/OR WEATHER CONDITIONS ARE NOT AVAILABLE.

MNZ060>063-068>070-260800-
   Twin Cities Metro

CITY           SKY/WX    TMP DP  RH WIND       PRES   REMARKS
TWIN CITIES    CLOUDY    66  62  87 SE7       29.79S
ST PAUL        CLOUDY    64  62  93 S3        29.79F
CRYSTAL        CLOUDY    66  61  84 SE6       29.77F
BLAINE         CLOUDY    64  64 100 SE5       29.78F
EDEN PRAIRIE   LGT RAIN  67  63  87 SE6       29.78S
SOUTH ST PAUL  MOCLDY    65  63  91 SE3       29.79S
LAKE ELMO      FAIR      63  63 100 CALM      29.79F
$$
MNZ001>005-007-008-013>017-022>024-027-028-260800-
   Northwest Minnesota

CITY           SKY/WX    TMP DP  RH WIND       PRES   REMARKS
BEMIDJI        CLOUDY    56  55  93 S5G10     29.78R
HALLOCK        CLOUDY    57  57 100 SW14      29.63F
ROSEAU         CLOUDY    59  54  82 S20G26    29.69S
WARROAD        CLOUDY    59  55  88 SE17      29.70F
THIEF RVR FALL CLOUDY    57  54  88 S6        29.72S
CROOKSTON      CLOUDY    57  57 100 W3        29.70
FOSSTON        CLOUDY    55  55 100 SE6       29.72F
MOORHEAD       CLEAR     55  54  94 CALM      29.72S
PARK RAPIDS    CLOUDY    59  56  89 S7        29.75R FOG
MAHNOMEN       FAIR      56  55  95 E5        29.72F
$$
MNZ006-009>011-018-025>026-260800-
   North Central Minnesota

CITY           SKY/WX    TMP DP  RH WIND       PRES   REMARKS
BAUDETTE       CLOUDY    57  53  86 SE10      29.74F
FLAG ISLAND    CLOUDY    57  55  94 SE14G20   29.71F
INTL FALLS     PTCLDY    56  50  80 SE6       29.78F
WASKISH        CLOUDY    55  54  94 SE5       29.75S
BIG FORK       CLEAR     57  52  82 S8        29.78F
LONGVILLE      CLOUDY    55  54  94 SE5       29.76F
GRAND RAPIDS   CLOUDY    52  51  97 E9        29.80F
CRANE LAKE     CLOUDY    54  48  82 CALM      29.82F
ORR            PTCLDY    54  46  76 SE7       29.77F
COOK           PTCLDY    52  48  87 E3        29.81F
WALKER         CLOUDY    56  55  95 SE9       29.75S
$$
MNZ012-019>021-037-260800-
   Northeast Minnesota

CITY           SKY/WX    TMP DP  RH WIND       PRES   REMARKS
DULUTH         FOG       46  45  96 E10       29.82F VSB 1/4
ELY            PTCLDY    48  46  93 CALM      29.83F
HIBBING        CLEAR     46  46 100 SE3       29.81F
EVELETH        PTCLDY    50  48  93 CALM      29.83F
DULUTH HARBOR  CLOUDY    45  43  93 E12       29.85F
TWO HARBORS    MOCLDY    50  45  81 NE3       29.83F
SILVER BAY     CLOUDY    48  46  93 N3        29.84S
GRAND MARAIS     N/A     49  44  83 NE5       29.86S
G MARAIS ARPRT MOCLDY    46  45  93 E7        29.87R
$$
MNZ029>031-032-039>041-046>048-054>057-064-260800-
   West Central Minnesota

CITY           SKY/WX    TMP DP  RH WIND       PRES   REMARKS
FERGUS FALLS   CLEAR     61  59  94 NE3       29.70R
WHEATON        CLEAR     63  59  88 W6        29.76R
MORRIS         CLOUDY    63  50  63 W12       29.73F
ALEXANDRIA     CLOUDY    60  47  61 SW7       29.75S
ELBOW LAKE     FAIR      60  49  67 W10       29.74R
WADENA         CLOUDY    55  55 100 CALM      29.74R
GLENWOOD       CLOUDY    63  46  55 SW10      29.75S
APPLETON       CLOUDY    63  52  67 SW7       29.74F
ORTONVILLE     CLOUDY    63  50  63 SW8       29.75F
MADISON        CLOUDY    61  52  72 W9        29.75F
WILLMAR        FAIR      59  54  82 CALM      29.76F
$$
MNZ033>034-036-042>043-049>051-058-059-260800-
   Central Minnesota

CITY           SKY/WX    TMP DP  RH WIND       PRES   REMARKS
ST CLOUD       PTCLDY    60  59  96 W3        29.78F
SAUK CENTRE    FAIR      60  59  97 SE7       29.75S
PAYNESVILLE    CLOUDY    63  63 100 SE6       29.77S
AITKIN         CLOUDY    55  52  88 E3        29.77F FOG
PINE RIVER     CLOUDY    55  55 100 SE10      29.80F FOG
BRAINERD       FOG       55  55 100 SE5       29.78F VSB 3/4
STAPLES        CLOUDY    57  57 100 SE6       29.75S FOG
LONG PRAIRIE   MOCLDY    59  59 100 E6        29.75F FOG
LITTLE FALLS   MOCLDY    59  59 100 SE8       29.76F FOG
LITCHFIELD     CLOUDY    63  59  88 NE3       29.76F
BUFFALO        CLOUDY    64  61  91 CALM      29.77F
MAPLE LAKE     CLOUDY    63  62  97 CALM      29.80S
HUTCHINSON     PTCLDY    66  58  76 E3        29.78F
$$
MNZ037-044-045-052-053-260800-
   East Central Minnesota

CITY           SKY/WX    TMP DP  RH WIND       PRES   REMARKS
PRINCETON      FOG       63  63 100 E3        29.78F VSB 1
MORA           FOG       54  52  94 CALM      29.82F VSB 1
CAMBRIDGE      HAZE      64  57  77 E3        29.77F VSB 1/2
RUSH CITY      CLOUDY    59  58  97 NE5       29.81S FOG
MOOSE LAKE     FOG       45  43  93 NE3       29.81F VSB 1/2
HINCKLEY       FOG       55  55 100 E6        29.81F VSB 1/2
CLOQUET        FOG       45  45 100 E7        29.83F VSB 1/2
MCGREGOR       CLOUDY    50  50 100 E7        29.80F VSB 1
$$
MNZ071>073-080-081-089-090-097-098-260800-
   Southwest Minnesota

CITY           SKY/WX    TMP DP  RH WIND       PRES   REMARKS
MONTEVIDEO     CLOUDY    63  50  63 SW6       29.77S
GRANITE FALLS  CLOUDY    62  54  74 SW3       29.76F
CANBY          MOCLDY    63  56  80 SW8       29.77F
MARSHALL       CLOUDY    65  52  62 SW6       29.75F
REDWOOD FALLS  CLOUDY    63  52  67 SE8       29.78R
OLIVIA         CLOUDY    61  50  67 CALM      29.77R
PIPESTONE      CLOUDY    61  54  77 W5        29.78F
WINDOM         RAIN      61  54  77 CALM      29.82S
WORTHINGTON    CLOUDY    60  54  80 SE10      29.80F
JACKSON        TSTM      57  54  88 W10       29.86F
TRACY          CLOUDY    67  53  61 SW15      29.75F
SLAYTON        CLOUDY    63  51  63 W7        29.78R
$$
MNZ065>067-074>077-082>085-091>093-260800-
   South Central Minnesota

CITY           SKY/WX    TMP DP  RH WIND       PRES   REMARKS
MANKATO        CLOUDY    63  55  77 NW14G21   29.82R THUNDER
NEW ULM        CLOUDY    61  59  94 S15       29.82R
ST JAMES       TSTM      54  52  94 CALM      29.85R
FAIRMONT       CLOUDY    59  39  47 W28G35    29.83R
GLENCOE        CLOUDY    66  64  94 S6        29.77F
FARIBAULT      CLOUDY    70  64  83 S8        29.78F
OWATONNA       CLOUDY    70  63  78 S8        29.79S
WASECA         MOCLDY    64  61  88 SW8       29.82R
ALBERT LEA     PTCLDY    66  63  88 S6        29.81S
$$
MNZ078>079-086>088-094>096-260800-
   Southeast Minnesota

CITY           SKY/WX    TMP DP  RH WIND       PRES   REMARKS
ROCHESTER      PTCLDY    62  61  96 S6        29.81F
RED WING       CLOUDY    64  63  94 CALM      29.78F
STANTON        MOCLDY    68  64  85 CALM      29.77S
DODGE CENTER   CLOUDY    66  61  82 S10       29.81F
WINONA         CLEAR     63  63 100 CALM      29.81F FOG
AUSTIN         PTCLDY    64  61  88 S7        29.81F
PRESTON        CLEAR     63  59  87 S7        29.83F
$$
ABBREVIATIONS USED IN REMARKS
   TC - TEMPERATURES IN CELSIUS
  WCI - WIND CHILL INDEX
   HX - HEAT INDEX
  VSB - VISIBILITY
$$




USA.gov is the U.S. government's official web portal to all federal, state and local government web resources and services.